STARLINK-38170, 100636

Orbit data source: Space-Track

STARLINK-38170, 100636 is a payload satellite owned by SpaceX/Seattle (US) in LEO that was launched on Sun, 06 Sep 2026 UTC launched from the Air Force Western Test Range (AFWTR). Payload-class satellites include a variety of spacecraft equipped with specific instruments for various scientific and technological missions. These include communications satellites like Starlink; space stations such as the ISS; scientific satellites like the Hubble; Earth observation satellites from companies like Planet Labs, Umbra, and HawkEye 360; GPS; miniature CubeSats for education and research; and military/defense satellites.

Not visible in the next 10 days
Identifier
100636, 2026-204X
Orbit
LEO
Country
Flag of USUS
Related business
Manufacturer
SpaceX/Seattle
Mission
Operational spacecraft
Bus & Motor
STARLINK V2MO, Unknown motor
Mass
575 kg wet, ~530 kg dry
Launch date (UTC)
2026-09-06 (5 days ago)
Launch vehicle
Unknown
Launch site
Air Force Western Test Range (AFWTR)
Object type
Payload
Rocket body
Debris
Shape & HBR
BOX + PAN, 17.7 m
Radar Cross Section
RCS unknown

Expand to show TLE details & history
Last TLE update: 20 hours ago

TLE from 20 hours ago
0 STARLINK-38170
1 A0636U          26253.56927247 -.00150675  12488-4 -27538-3 0  9996
2 A0636  69.9974 266.2518 0004199 269.4406  90.6325 16.00964065   647
Epoch: 2026-09-10T13:39Z
TLE epoch observation values (Epoch: 2026-09-10T13:39:45.141Z)
Latitude
0.00004°
Longitude
71.70863°
Altitude
274.313 km
Speed
7.743 km/s
True Right ascension
17h 45m 00s
True Declination
0° 00' 00"
Sunlit
Object was in daylight at epoch
Visualization orbit readout
Latitude
Unknown
Longitude
Unknown
Altitude
Unknown
Speed
Unknown
Apparent Right ascension
Unknown
Apparent Declination
Unknown
Sunlit
N/A
Visualization observer readout
Local Sidereal Time
02:29:47
Azimuth
Unknown
Elevation
Unknown
Doppler factor
Unknown
Orbital elements
Apogee altitude
272.395 km
Perigee altitude
266.812 km
Semi-major axis
6,647.74 km
Eccentricity
0.00042
Inclination
69.9974°
RAAN
266.2518°
Arg. of periapsis
269.4406°
True anomaly
90.68061°
Mean anomaly
90.6325°
Eccentric anomaly
90.65656°
Mean motion
4.00435 °/min
Orbital period
89.9 mins
BSTAR
-0.00027538
Loading maneuver chart data...
Computing Atmospheric mass density...
Loading historical data...
Loading historical data...
Loading historical data...
Loading historical data...
Loading historical data...
Loading historical data...
Loading historical data...

Documentation

Showing up to 5 results
|